Regional Weather Roundup
Issued by NWS

Home | Current Version | Previous Version | Text Only | Print | Product List | Glossary Off
Versions: 1 2 3 4 5 6 7 8 9 10 11 12 13 14 15 16 17 18 19 20 21 22 23 24 25 26 27 28 29 30 31 32 33 34 35 36 37 38 39 40 41 42 43 44 45 46 47 48 49 50

000
ASUS43 KOAX 172310
RWRNE

WEATHER ROUNDUP FOR NEBRASKA
NATIONAL WEATHER SERVICE OMAHA NE
600 PM CDT THU AUG 17 2017

NOTES: SATELLITE DATA IS BEING USED TO AUGMENT CLOUD COVER ABOVE
       12000 FEET.
       "FAIR" INDICATES FEW OR NO CLOUDS BELOW 12,000 FEET WITH NO
       SIGNIFICANT WEATHER AND/OR OBSTRUCTIONS TO VISIBILITY.


NEZ001>004-019>022-054>056-180000-
NEBRASKA PANHANDLE

CITY           SKY/WX    TMP DP  RH WIND       PRES   REMARKS
SCOTTSBLUFF    SUNNY     90  43  19 NW5       29.96F
ALLIANCE       SUNNY     87  46  24 MISG      29.95F
CHADRON        SUNNY     91  42  18 SW9       29.88F
GORDON         FAIR      89  44  21 SW10      29.91F
KIMBALL        SUNNY     83  45  25 S9        30.06F
SIDNEY         SUNNY     88  41  19 SW14      30.02F
$$

NEZ057>060-069>072-079>082-180000-
SOUTHWEST NEBRASKA

CITY           SKY/WX    TMP DP  RH WIND       PRES   REMARKS
NORTH PLATTE   SUNNY     86  60  41 S12       29.95F
IMPERIAL       SUNNY     85  53  33 S12       29.97F
LEXINGTON      SUNNY     85  57  37 S10       29.97F
MCCOOK         SUNNY     88  59  37 S10       29.97F
OGALLALA       SUNNY     87  57  36 S13       29.95F
$$

NEZ005>010-023>029-035>040-094-180000-
NORTH CENTRAL NEBRASKA

CITY           SKY/WX    TMP DP  RH WIND       PRES   REMARKS
VALENTINE      SUNNY     92  48  22 S14       29.87F
AINSWORTH      SUNNY     86  56  36 S13       29.90F
BROKEN BOW     SUNNY     87  55  33 SW12      29.96S
O`NEILL        SUNNY     84  58  41 S7        29.91F
ORD            SUNNY     85  55  35 S9        29.92F
THEDFORD       SUNNY     89  54  30 S14G20    29.94F
$$

NEZ041-046>049-061>064-073>077-083>087-180000-
SOUTH CENTRAL NEBRASKA

CITY           SKY/WX    TMP DP  RH WIND       PRES   REMARKS
GRAND ISLAND   SUNNY     85  63  47 VRB6      29.96F
AURORA         SUNNY     83  63  50 W5        29.96F
HASTINGS       SUNNY     83  59  44 SW5       29.98F
HEBRON         SUNNY     85  58  39 CALM      29.96S
HOLDREGE       SUNNY     83  54  36 S6        29.98F
KEARNEY        SUNNY     83  62  49 S8        29.98S
YORK           SUNNY     81  66  61 CALM      29.96S
$$

NEZ011>018-030>034-042>045-180000-
NORTHEAST NEBRASKA

CITY           SKY/WX    TMP DP  RH WIND       PRES   REMARKS
NORFOLK        SUNNY     82  60  47 SW7       29.92S
ALBION         SUNNY     85  61  44 SW6       29.93F
BLAIR          RAIN      80  62  52 W7        29.93R
COLUMBUS       SUNNY     83  62  49 SW7       29.93F
FREMONT        SUNNY     81  61  50 W7        29.93S
TEKAMAH        SUNNY     81  60  48 W8        29.91S
WAYNE          SUNNY     80  58  48 W6        29.92S
$$

NEZ050>053-065>068-078-088>093-180000-
SOUTHEAST NEBRASKA

CITY           SKY/WX    TMP DP  RH WIND       PRES   REMARKS
LINCOLN        SUNNY     84  61  45 W8        29.94F
OMAHA EPPLEY   SUNNY     83  59  44 W14       29.91S
BEATRICE       SUNNY     85  59  40 W6        29.95S
FALLS CITY     SUNNY     83  57  41 NW8       29.92F
NEBRASKA CITY  SUNNY     82  58  43 NW10      29.94S
PLATTSMOUTH    SUNNY     81  58  45 W9        29.93S
$$

NEZ044-045-051>053-067-180000-
OMAHA AREA

CITY           SKY/WX    TMP DP  RH WIND       PRES   REMARKS
OMAHA EPPLEY   SUNNY     83  59  44 W14       29.91S
BLAIR          RAIN      80  62  52 W7        29.93R
FREMONT        SUNNY     81  61  50 W7        29.93S
MILLARD        SUNNY     83  62  48 W9        29.92S
OFFUTT AFB     SUNNY     84  55  36 W13       29.91S
PLATTSMOUTH    SUNNY     81  58  45 W9        29.93S
WAHOO          FAIR      81  63  54 W7        29.93S
$$



USA.gov is the U.S. government's official web portal to all federal, state and local government web resources and services.